EW9318 Weather Reports


time (UTC)temp
C
wind
direction
speed
KPH
gust
KPH
rain 1hr
cm
rain 24hr
cm
rain mn
cm
humidity
%
barometer
mb
20210224224523 1 309 16.1 29.0 0.00 0.00 0.00 80 1013.6
20210224224024 1 315 16.1 29.0 0.00 0.00 0.00 80 1013.5
20210224223518 1 305 17.7 29.0 0.00 0.00 0.00 81 1013.4
20210224223044 1 315 17.7 25.7 0.00 0.00 0.00 81 1013.2
20210224222745 1 308 16.1 35.4 0.00 0.00 0.00 81 1012.9
20210224222031 1 317 19.3 35.4 0.00 0.00 0.00 81 1012.8
20210224221524 1 318 19.3 30.6 0.00 0.00 0.00 80 1012.6
20210224221033 1 304 16.1 32.2 0.00 0.00 0.00 80 1012.4
20210224220522 1 307 17.7 32.2 0.00 0.00 0.00 80 1012.3
20210224220039 2 301 17.7 32.2 0.00 0.00 0.00 80 1012.2
20210224215524 2 310 16.1 27.4 0.00 0.00 0.00 80 1011.9
20210224215231 1 313 17.7 27.4 0.00 0.00 0.00 80 1011.7
20210224214525 1 303 14.5 27.4 0.00 0.00 0.00 81 1011.6
20210224214029 1 307 14.5 32.2 0.00 0.00 0.00 81 1011.5
20210224213521 1 325 20.9 37.0 0.00 0.00 0.00 81 1011.3
20210224213028 1 312 24.1 38.6 0.00 0.00 0.00 81 1011.2
20210224212640 1 312 24.1 38.6 0.00 0.00 0.00 82 1011.1
20210224212026 1 302 22.5 37.0 0.00 0.00 0.00 82 1010.8
20210224211529 1 307 19.3 32.2 0.00 0.00 0.00 83 1010.7
20210224211022 1 303 17.7 29.0 0.00 0.00 0.00 84 1010.6
20210224210533 1 312 19.3 33.8 0.00 0.00 0.00 84 1010.5
20210224210021 1 313 19.3 33.8 0.00 0.00 0.00 85 1010.3
20210224205518 1 306 20.9 33.8 0.00 0.00 0.00 86 1010.2
20210224205113 1 304 22.5 33.8 0.00 0.00 0.00 86 1010.1
20210224204520 1 307 17.7 37.0 0.00 0.00 0.00 86 1009.9
20210224204020 1 297 24.1 37.0 0.00 0.00 0.00 86 1009.7
20210224203527 1 314 16.1 33.8 0.00 0.00 0.00 85 1009.7
20210224203024 1 309 24.1 35.4 0.00 0.00 0.00 85 1009.5
20210224202607 2 313 22.5 35.4 0.00 0.00 0.00 85 1009.3
20210224202022 2 306 19.3 32.2 0.00 0.00 0.00 85 1008.9
20210224201518 2 304 16.1 32.2 0.00 0.00 0.00 85 1008.9
20210224201028 1 302 19.3 40.2 0.00 0.00 0.00 86 1008.8
20210224200521 1 299 22.5 40.2 0.00 0.00 0.00 87 1008.7
20210224200030 1 300 14.5 41.8 0.00 0.00 0.00 88 1008.5
20210224195527 1 311 20.9 41.8 0.00 0.00 0.00 88 1008.3
20210224195221 2 316 19.3 33.8 0.00 0.00 0.00 87 1008.2
20210224194527 2 305 12.9 37.0 0.00 0.00 0.00 87 1008.1
20210224194022 2 307 19.3 37.0 0.00 0.00 0.00 87 1007.9
20210224193537 2 300 20.9 37.0 0.00 0.00 0.00 86 1007.8
20210224193031 2 306 20.9 35.4 0.00 0.00 0.00 86 1007.7
20210224192607 2 302 19.3 37.0 0.00 0.00 0.00 85 1007.6
20210224192023 2 314 22.5 37.0 0.00 0.00 0.00 85 1007.6
20210224191528 2 308 17.7 40.2 0.00 0.00 0.00 85 1007.4
20210224191028 2 299 20.9 40.2 0.00 0.00 0.00 85 1007.4
20210224190517 2 303 17.7 30.6 0.00 0.00 0.00 85 1007.3
20210224190029 2 299 20.9 32.2 0.00 0.00 0.00 84 1007.2
20210224185517 2 311 20.9 35.4 0.00 0.00 0.00 83 1007.1
20210224185322 2 317 19.3 35.4 0.00 0.00 0.00 82 1007.1
20210224184525 3 314 19.3 32.2 0.00 0.00 0.00 81 1006.9
20210224184020 3 316 20.9 32.2 0.00 0.00 0.00 80 1006.7
20210224183528 3 300 12.9 24.1 0.00 0.00 0.00 80 1006.6
20210224183045 3 295 12.9 24.1 0.00 0.00 0.00 79 1006.3
20210224182616 3 289 14.5 29.0 0.00 0.00 0.00 79 1006.3
20210224182034 3 292 19.3 32.2 0.00 0.00 0.00 79 1006.2
20210224181529 3 293 20.9 35.4 0.00 0.00 0.00 77 1006.2
20210224181020 3 288 19.3 35.4 0.00 0.00 0.00 76 1006.0
20210224180528 4 290 17.7 32.2 0.00 0.00 0.00 76 1005.9
20210224180034 4 285 20.9 37.0 0.00 0.00 0.00 75 1005.8
20210224175525 4 287 20.9 37.0 0.00 0.00 0.00 74 1005.7
20210224175125 5 303 20.9 32.2 0.00 0.00 0.00 73 1005.7
20210224174532 5 296 17.7 32.2 0.00 0.00 0.00 73 1005.6
20210224174027 5 292 16.1 37.0 0.00 0.00 0.00 74 1005.5
20210224173521 5 283 20.9 40.2 0.00 0.00 0.00 75 1005.4
20210224173035 4 283 24.1 40.2 0.00 0.00 0.00 75 1005.5
20210224172537 5 294 20.9 30.6 0.00 0.00 0.00 74 1005.6
20210224172031 5 291 20.9 33.8 0.00 0.00 0.00 74 1005.4
20210224171535 5 290 22.5 35.4 0.00 0.00 0.00 73 1005.3
20210224171019 5 285 19.3 35.4 0.00 0.00 0.00 74 1005.1
20210224170531 5 277 20.9 38.6 0.00 0.00 0.00 75 1005.1
20210224170044 5 280 20.9 40.2 0.00 0.00 0.00 75 1004.9
20210224165532 5 282 24.1 41.8 0.00 0.00 0.00 74 1005.0
20210224165121 5 295 24.1 41.8 0.00 0.00 0.00 73 1004.8
20210224164524 6 286 22.5 40.2 0.00 0.00 0.00 73 1004.7
20210224164021 5 286 16.1 37.0 0.00 0.00 0.00 74 1004.6
20210224163524 5 276 22.5 37.0 0.00 0.00 0.00 74 1004.5
20210224163028 5 277 20.9 38.6 0.00 0.00 0.00 74 1004.3
20210224162545 5 275 20.9 38.6 0.00 0.00 0.00 75 1004.2
20210224162029 5 269 24.1 37.0 0.00 0.00 0.00 75 1004.0
20210224161525 5 285 17.7 33.8 0.00 0.00 0.00 75 1004.1
20210224161029 5 269 20.9 33.8 0.00 0.00 0.00 77 1003.8
20210224160523 5 262 24.1 33.8 0.00 0.00 0.00 76 1003.7
20210224160035 5 276 20.9 38.6 0.00 0.00 0.00 77 1003.7
20210224155523 5 272 24.1 38.6 0.00 0.00 0.00 77 1003.7
20210224155115 5 272 17.7 35.4 0.00 0.00 0.00 77 1003.5
20210224154529 5 265 20.9 35.4 0.00 0.00 0.00 78 1003.6
20210224154021 5 270 17.7 40.2 0.00 0.00 0.00 78 1003.4
20210224153535 5 272 24.1 40.2 0.00 0.00 0.00 79 1003.5
20210224153034 4 272 22.5 32.2 0.00 0.00 0.00 79 1003.5
20210224152552 4 265 22.5 38.6 0.00 0.00 0.00 78 1003.4
20210224152022 5 270 20.9 38.6 0.00 0.00 0.00 79 1003.4
20210224151525 5 270 19.3 30.6 0.00 0.00 0.00 78 1003.3
20210224151041 5 260 17.7 29.0 0.00 0.00 0.00 78 1003.3
20210224150520 5 262 17.7 32.2 0.00 0.00 0.00 78 1003.2
20210224150027 5 257 19.3 33.8 0.00 0.00 0.00 78 1003.1
20210224145522 5 254 22.5 33.8 0.00 0.00 0.00 77 1003.1
20210224145210 5 254 19.3 33.8 0.00 0.00 0.00 77 1003.0
20210224144522 5 249 19.3 33.8 0.00 0.00 0.00 77 1002.9
20210224144020 5 254 20.9 33.8 0.00 0.00 0.00 76 1002.8
20210224143524 5 254 16.1 33.8 0.00 0.00 0.00 76 1002.9
20210224143026 5 258 20.9 33.8 0.00 0.00 0.00 75 1002.6
20210224142626 5 257 19.3 35.4 0.00 0.00 0.00 75 1002.7
20210224142030 5 259 22.5 35.4 0.00 0.00 0.00 75 1002.7
20210224141528 6 258 22.5 33.8 0.00 0.00 0.00 75 1002.5
20210224141029 6 259 16.1 32.2 0.00 0.00 0.00 74 1002.5
20210224140521 6 251 19.3 33.8 0.00 0.00 0.00 74 1002.6
20210224140026 6 265 22.5 33.8 0.00 0.00 0.00 73 1002.7
20210224135524 6 259 20.9 30.6 0.00 0.00 0.00 73 1002.5
20210224135023 6 260 19.3 30.6 0.00 0.00 0.00 74 1002.4
20210224134530 6 256 17.7 27.4 0.00 0.00 0.00 73 1002.4
20210224134026 6 252 14.5 25.7 0.00 0.00 0.00 73 1002.2
20210224133524 6 254 17.7 24.1 0.00 0.00 0.00 74 1002.3
20210224133058 6 246 11.3 22.5 0.00 0.00 0.00 74 1002.1
20210224132649 6 241 12.9 22.5 0.00 0.00 0.00 73 1002.2
20210224132038 5 250 11.3 19.3 0.00 0.00 0.00 73 1002.3
20210224131524 5 249 9.7 17.7 0.00 0.00 0.00 73 1002.2
20210224131033 5 249 8.0 17.7 0.00 0.00 0.00 73 1002.3
20210224130528 5 242 6.4 14.5 0.00 0.00 0.00 73 1002.1
20210224130033 5 240 4.8 14.5 0.00 0.00 0.00 74 1002.1
20210224125610 5 233 4.8 12.9 0.00 0.00 0.00 73 1002.0
20210224125325 5 238 4.8 11.3 0.00 0.00 0.00 73 1002.0
20210224124533 5 212 4.8 12.9 0.00 0.00 0.00 73 1002.0
20210224124034 5 210 6.4 12.9 0.00 0.00 0.00 74 1001.9
20210224123531 5 226 3.2 9.7 0.00 0.00 0.00 73 1002.0
20210224123057 5 219 3.2 11.3 0.00 0.00 0.00 73 1002.1
20210224122653 5 195 4.8 11.3 0.00 0.00 0.00 73 1002.0
20210224122037 5 214 4.8 8.0 0.00 0.00 0.00 73 1002.1
20210224121523 5 205 3.2 9.7 0.00 0.00 0.00 73 1002.0
20210224121022 5 219 3.2 12.9 0.00 0.00 0.00 73 1002.1
20210224120523 5 210 4.8 14.5 0.00 0.00 0.00 73 1002.1
20210224120023 5 234 4.8 14.5 0.00 0.00 0.00 73 1002.1
20210224115530 5 238 4.8 11.3 0.00 0.00 0.00 72 1002.2
20210224115301 5 237 4.8 11.3 0.00 0.00 0.00 72 1002.1
20210224114535 5 233 4.8 11.3 0.00 0.00 0.00 72 1002.1
20210224114022 5 202 6.4 16.1 0.00 0.00 0.00 72 1001.9
20210224113529 5 202 6.4 16.1 0.00 0.00 0.00 71 1001.9
20210224113020 5 193 8.0 16.1 0.00 0.00 0.00 71 1002.0
20210224112533 5 191 8.0 12.9 0.00 0.00 0.00 71 1002.0
20210224112025 5 200 4.8 14.5 0.00 0.00 0.00 71 1002.1
20210224111524 5 197 4.8 14.5 0.00 0.00 0.00 71 1002.3
20210224111019 5 207 6.4 12.9 0.00 0.00 0.00 71 1002.4
20210224110523 5 203 6.4 12.9 0.00 0.00 0.00 71 1002.4
20210224110031 5 215 3.2 9.7 0.00 0.00 0.00 71 1002.6
20210224105517 5 224 4.8 9.7 0.00 0.00 0.00 71 1002.6
20210224105116 5 227 3.2 14.5 0.00 0.00 0.00 71 1002.7
20210224104519 5 229 6.4 17.7 0.00 0.00 0.00 71 1002.8
20210224104024 5 235 8.0 22.5 0.00 0.00 0.00 72 1002.6
20210224103521 5 198 9.7 22.5 0.00 0.00 0.00 72 1002.3
20210224103026 4 181 8.0 19.3 0.00 0.00 0.00 73 1002.2
20210224102651 4 184 8.0 17.7 0.00 0.00 0.00 75 1002.2
20210224102031 3 178 6.4 14.5 0.00 0.00 0.00 76 1002.2
20210224101524 3 166 4.8 12.9 0.00 0.00 0.00 76 1002.2
20210224101022 3 171 3.2 11.3 0.00 0.00 0.00 77 1002.3
20210224100521 3 160 3.2 9.7 0.00 0.00 0.00 77 1002.3
20210224100031 3 146 4.8 12.9 0.00 0.00 0.00 77 1002.3
20210224095525 3 156 4.8 12.9 0.00 0.00 0.00 77 1002.5
20210224095141 3 152 4.8 12.9 0.00 0.00 0.00 77 1002.5
20210224094518 3 159 6.4 14.5 0.00 0.00 0.00 77 1002.7
20210224094023 3 156 8.0 14.5 0.00 0.00 0.00 77 1002.9
20210224093522 2 169 4.8 11.3 0.00 0.00 0.00 78 1003.1
20210224093032 2 158 4.8 12.9 0.00 0.00 0.00 78 1003.1
20210224092610 2 150 6.4 12.9 0.00 0.00 0.00 78 1003.4
20210224092036 2 154 4.8 14.5 0.00 0.00 0.00 78 1003.5
20210224091525 2 159 6.4 14.5 0.00 0.00 0.00 78 1003.5
20210224091022 2 148 6.4 14.5 0.00 0.00 0.00 78 1003.6
20210224090523 2 156 6.4 14.5 0.00 0.00 0.00 78 1003.7
20210224090032 2 163 8.0 14.5 0.00 0.00 0.00 78 1003.9
20210224085520 2 158 8.0 16.1 0.00 0.00 0.00 78 1003.9
20210224085218 2 170 8.0 19.3 0.00 0.00 0.00 78 1004.2
20210224084524 2 159 9.7 20.9 0.00 0.00 0.00 78 1004.3
20210224084030 2 156 9.7 20.9 0.00 0.00 0.00 78 1004.4
20210224083520 2 160 9.7 19.3 0.00 0.00 0.00 78 1004.6
20210224083027 2 171 9.7 22.5 0.00 0.00 0.00 78 1004.7
20210224082535 2 164 11.3 22.5 0.00 0.00 0.00 79 1004.9
20210224082028 2 165 8.0 17.7 0.00 0.00 0.00 80 1004.9
20210224081531 2 154 6.4 14.5 0.00 0.00 0.00 81 1004.9
20210224081025 2 144 8.0 14.5 0.00 0.00 0.00 82 1004.8
20210224080518 2 137 9.7 17.7 0.00 0.00 0.00 82 1005.0
20210224080025 2 140 9.7 19.3 0.00 0.00 0.00 82 1005.2
20210224075522 2 136 12.9 19.3 0.00 0.00 0.00 82 1005.4
20210224075236 2 136 12.9 19.3 0.00 0.00 0.00 82 1005.6
20210224074520 2 137 12.9 19.3 0.00 0.00 0.00 82 1005.7
20210224074021 2 128 9.7 16.1 0.00 0.00 0.00 82 1005.9
20210224073525 2 127 9.7 16.1 0.00 0.00 0.00 82 1006.1
20210224073027 2 126 9.7 14.5 0.00 0.00 0.00 82 1006.3
20210224072551 2 131 8.0 14.5 0.00 0.00 0.00 83 1006.6
20210224072030 2 121 8.0 12.9 0.00 0.00 0.00 82 1006.6
20210224071526 2 129 6.4 12.9 0.00 0.00 0.00 82 1006.8
20210224071032 2 129 6.4 12.9 0.00 0.00 0.00 82 1006.9
20210224070522 2 126 8.0 12.9 0.00 0.00 0.00 81 1007.1
20210224070023 2 128 6.4 12.9 0.00 0.00 0.00 81 1007.2
20210224065530 2 133 6.4 12.9 0.00 0.00 0.00 82 1007.4
20210224065329 1 132 6.4 11.3 0.00 0.00 0.00 82 1007.5
20210224064522 1 139 6.4 11.3 0.00 0.00 0.00 83 1007.7
20210224064022 1 133 6.4 11.3 0.00 0.00 0.00 83 1007.9
20210224063521 1 131 4.8 8.0 0.00 0.00 0.00 81 1008.2
20210224063027 1 134 4.8 8.0 0.00 0.00 0.00 81 1008.4
20210224062612 1 150 3.2 6.4 0.00 0.00 0.00 80 1008.4
20210224062025 2 175 0.0 3.2 0.00 0.00 0.00 79 1008.3
20210224061526 2 173 0.0 4.8 0.00 0.00 0.00 79 1008.5
20210224061026 2 166 1.6 6.4 0.00 0.00 0.00 79 1008.4
20210224060522 2 157 1.6 6.4 0.00 0.00 0.00 79 1008.3
20210224060021 2 149 3.2 6.4 0.00 0.00 0.00 79 1008.4
20210224055519 2 176 1.6 8.0 0.00 0.00 0.00 79 1008.4
20210224055130 2 195 1.6 11.3 0.00 0.00 0.00 79 1008.5
20210224054519 2 213 3.2 11.3 0.00 0.00 0.00 79 1008.6
20210224054023 2 210 4.8 8.0 0.00 0.00 0.00 79 1008.5
20210224053524 2 245 3.2 9.7 0.00 0.00 0.00 79 1008.5
20210224053024 2 209 3.2 11.3 0.00 0.00 0.00 79 1008.2
20210224052634 2 178 4.8 12.9 0.00 0.00 0.00 80 1007.9
20210224052024 2 181 4.8 12.9 0.00 0.00 0.00 80 1007.8
20210224051526 2 168 6.4 12.9 0.00 0.00 0.00 81 1007.6
20210224051028 2 167 4.8 11.3 0.00 0.00 0.00 81 1007.6
20210224050522 2 144 3.2 6.4 0.00 0.03 0.00 81 1007.7
20210224050028 2 156 3.2 9.7 0.00 0.05 0.05 81 1007.9
20210224045539 2 166 4.8 11.3 0.00 0.05 0.05 81 1007.9
20210224045103 1 169 4.8 11.3 0.00 0.05 0.05 81 1008.2
20210224044526 1 177 3.2 6.4 0.00 0.05 0.05 81 1008.2
20210224044022 2 188 1.6 8.0 0.00 0.05 0.05 81 1008.4
20210224043527 1 196 3.2 8.0 0.00 0.05 0.05 82 1008.6
20210224043023 1 189 4.8 9.7 0.00 0.05 0.05 81 1008.5
20210224042534 2 203 3.2 11.3 0.00 0.05 0.05 81 1008.7
20210224042027 1 202 4.8 11.3 0.00 0.05 0.05 81 1008.7
20210224041536 1 182 4.8 12.9 0.00 0.05 0.05 81 1008.4
20210224041024 1 166 4.8 12.9 0.00 0.05 0.05 82 1008.4
20210224040526 1 155 6.4 12.9 0.00 0.05 0.05 82 1008.2
20210224040037 1 144 6.4 16.1 0.00 0.05 0.05 82 1008.2
20210224035521 1 139 8.0 16.1 0.00 0.05 0.05 81 1008.3
20210224035052 1 144 6.4 12.9 0.00 0.05 0.05 80 1008.5
20210224034529 2 167 4.8 11.3 0.00 0.05 0.05 81 1009.2
20210224034031 2 155 3.2 8.0 0.00 0.05 0.05 80 1009.3
20210224033524 2 165 4.8 8.0 0.00 0.05 0.05 80 1009.4
20210224033027 2 159 3.2 12.9 0.00 0.05 0.05 80 1009.6
20210224032619 2 174 4.8 12.9 0.00 0.05 0.05 79 1009.7
20210224032025 2 181 3.2 8.0 0.00 0.05 0.05 79 1009.8
20210224031525 2 190 3.2 11.3 0.00 0.05 0.05 79 1009.9
20210224031022 2 189 3.2 11.3 0.00 0.05 0.05 78 1009.9
20210224030521 2 197 4.8 11.3 0.00 0.05 0.05 78 1009.9
20210224030026 2 179 3.2 8.0 0.00 0.05 0.05 78 1009.9
20210224025525 2 167 3.2 6.4 0.00 0.05 0.05 78 1009.9
20210224025157 2 182 1.6 6.4 0.00 0.05 0.05 77 1009.8
20210224024524 2 206 1.6 6.4 0.00 0.05 0.05 77 1009.8
20210224024028 3 211 1.6 6.4 0.00 0.05 0.05 77 1009.8
20210224023527 2 211 3.2 6.4 0.00 0.05 0.05 77 1009.8
20210224023030 2 218 3.2 6.4 0.00 0.05 0.05 76 1009.9
20210224022553 3 214 3.2 8.0 0.00 0.05 0.05 76 1009.8
20210224022036 3 210 3.2 8.0 0.00 0.05 0.05 76 1009.7
20210224021528 3 191 3.2 8.0 0.00 0.05 0.05 77 1009.7
20210224021025 3 201 3.2 8.0 0.00 0.05 0.05 76 1009.7
20210224020519 3 213 3.2 14.5 0.00 0.05 0.05 76 1009.8
20210224020026 3 229 4.8 14.5 0.00 0.05 0.05 76 1009.8
20210224015524 3 237 6.4 14.5 0.00 0.05 0.05 76 1009.8
20210224015023 3 246 6.4 14.5 0.00 0.05 0.05 77 1009.9
20210224014523 3 249 4.8 9.7 0.00 0.05 0.05 77 1009.9
20210224014024 3 247 4.8 9.7 0.00 0.05 0.05 77 1009.9
20210224013519 3 248 3.2 8.0 0.00 0.05 0.05 77 1009.9
20210224013027 3 239 3.2 9.7 0.00 0.05 0.05 78 1010.0
20210224012640 2 236 3.2 9.7 0.00 0.05 0.05 79 1010.1
20210224012021 2 246 1.6 6.4 0.00 0.05 0.05 78 1010.0
20210224011531 2 236 0.0 4.8 0.00 0.05 0.05 78 1009.8
20210224011029 3 233 0.0 4.8 0.00 0.05 0.05 77 1009.8
20210224010536 3 205 0.0 4.8 0.00 0.05 0.05 77 1009.7
20210224010043 3 199 1.6 8.0 0.00 0.05 0.05 76 1009.8
20210224005520 3 234 3.2 8.0 0.00 0.05 0.05 75 1009.8
20210224005131 3 240 3.2 6.4 0.00 0.05 0.05 74 1009.7
20210224004524 3 229 3.2 6.4 0.00 0.05 0.05 74 1009.6
20210224004027 3 229 1.6 8.0 0.00 0.05 0.05 74 1009.5
20210224003526 3 234 3.2 16.1 0.00 0.05 0.05 74 1009.6
20210224003022 3 233 6.4 17.7 0.00 0.05 0.05 74 1009.7
20210224002610 3 235 8.0 17.7 0.00 0.05 0.05 74 1009.6
20210224002022 3 254 4.8 12.9 0.00 0.05 0.05 74 1009.6
20210224001547 3 252 3.2 11.3 0.00 0.05 0.05 74 1009.5
20210224001026 3 256 4.8 9.7 0.00 0.05 0.05 74 1009.4
20210224000526 3 255 4.8 9.7 0.00 0.05 0.05 74 1009.3
20210224000027 3 259 3.2 6.4 0.00 0.05 0.05 75 1009.2
20210223235520 3 236 1.6 6.4 0.00 0.05 0.05 76 1009.2
20210223235023 3 224 1.6 6.4 0.00 0.05 0.05 75 1009.1
20210223234526 3 228 1.6 4.8 0.00 0.05 0.05 75 1008.9
20210223234036 3 235 1.6 4.8 0.00 0.05 0.05 73 1008.8
20210223233525 3 232 1.6 6.4 0.00 0.05 0.05 71 1008.7
20210223233025 4 238 3.2 8.0 0.00 0.05 0.05 70 1008.7
20210223232634 4 236 4.8 12.9 0.00 0.05 0.05 70 1008.7
20210223232028 4 238 8.0 12.9 0.00 0.05 0.05 70 1008.6
20210223231528 5 245 6.4 11.3 0.00 0.05 0.05 69 1008.5
20210223231027 5 242 4.8 11.3 0.00 0.05 0.05 68 1008.5
20210223230519 5 250 4.8 11.3 0.00 0.05 0.05 68 1008.5
20210223230026 5 242 4.8 11.3 0.00 0.05 0.05 68 1008.5
20210223225521 5 246 4.8 16.1 0.00 0.05 0.05 67 1008.5
20210223225043 5 245 9.7 17.7 0.00 0.05 0.05 67 1008.5